DJ3OW-13 Weather Reports


Display with metric or nautical units.
time (UTC)temp
F
wind
direction
speed
MPH
gust
MPH
rain 1hr
in
rain 24hr
in
rain mn
in
humidity
%
barometer
mb
20260505011102 55 0.0 0.0 0.00 0.07 0.00 99 1013.7
20260505010100 55 0.0 0.0 0.00 0.07 0.00 99 1013.6
20260505005058 55 0.0 0.0 0.00 0.07 0.00 98 1013.8
20260505004056 55 0.0 0.0 0.00 0.07 0.00 98 1013.9
20260505003054 55 0.0 0.0 0.00 0.07 0.00 98 1013.9
20260505002051 55 0.0 0.0 0.00 0.07 0.00 98 1013.9
20260505001130 55 0.0 0.0 0.00 0.07 0.00 98 1014.0
20260505000048 55 0.0 0.0 0.00 0.07 0.00 98 1014.1
20260504235045 55 248 0.0 2.0 0.00 0.07 0.00 98 1014.1
20260504234043 55 0.0 0.0 0.00 0.07 0.00 98 1014.3
20260504233042 55 0.0 0.0 0.00 0.07 0.00 98 1014.6
20260504232040 56 0.0 0.0 0.00 0.07 0.00 98 1014.7
20260504231038 56 0.0 0.0 0.00 0.07 0.00 98 1014.9
20260504230036 56 0.0 0.0 0.00 0.07 0.00 98 1015.0
20260504225033 56 0.0 0.0 0.00 0.07 0.00 98 1015.0
20260504224032 56 0.0 0.0 0.00 0.07 0.00 97 1015.1
20260504223029 56 0.0 0.0 0.00 0.07 0.00 97 1015.2
20260504222027 56 0.0 0.0 0.00 0.07 0.00 97 1015.1
20260504221025 56 0.0 0.0 0.00 0.07 0.00 97 1015.3
20260504220043 56 0.0 0.0 0.00 0.07 0.00 97 1015.2
20260504215021 56 0.0 0.0 0.01 0.07 0.07 97 1015.2
20260504214019 56 0.0 0.0 0.01 0.07 0.07 97 1015.5
20260504213018 56 0.0 0.0 0.01 0.07 0.07 97 1015.3
20260504212015 56 0.0 0.0 0.01 0.07 0.07 97 1015.4
20260504211113 57 118 0.0 2.0 0.01 0.07 0.07 97 1015.6
20260504210111 57 0.0 0.0 0.01 0.07 0.07 96 1015.6
20260504205109 57 0.0 0.0 0.00 0.06 0.06 96 1015.6
20260504204107 57 0.0 0.0 0.00 0.06 0.06 96 1015.9
20260504203125 56 0.0 2.0 0.00 0.06 0.06 96 1015.9
20260504202103 57 0.0 2.0 0.00 0.06 0.06 96 1015.8
20260504201101 57 0.0 2.0 0.00 0.06 0.06 95 1015.8
20260504200059 57 0.0 0.0 0.01 0.06 0.06 95 1015.8
20260504195057 57 169 1.0 2.0 0.01 0.06 0.06 95 1015.8
20260504194055 57 113 0.0 2.0 0.04 0.06 0.06 94 1015.8
20260504193113 57 0.0 0.0 0.05 0.06 0.06 94 1015.7
20260504192051 57 0.0 0.0 0.06 0.06 0.06 94 1015.7
20260504191049 57 135 0.0 2.0 0.06 0.06 0.06 93 1015.8
20260504190107 58 135 0.0 2.0 0.05 0.05 0.05 92 1015.7
20260504185045 58 0.0 2.0 0.05 0.05 0.05 90 1015.7
20260504184043 57 0.0 0.0 0.02 0.02 0.02 89 1015.7
20260504183141 58 0.0 0.0 0.01 0.01 0.01 88 1015.6
20260504182039 58 240 1.0 2.0 0.00 0.00 0.00 87 1015.4
20260504181037 58 253 2.0 4.0 0.00 0.00 0.00 86 1015.3
20260504180035 59 260 1.0 6.0 0.00 0.00 0.00 84 1015.2
20260504175033 60 276 2.0 11.0 0.00 0.00 0.00 80 1015.2
20260504174031 60 259 4.0 7.0 0.00 0.00 0.00 79 1015.1
20260504173029 61 259 3.0 6.0 0.00 0.00 0.00 78 1015.0
20260504172027 62 264 3.0 6.0 0.00 0.00 0.00 76 1014.9
20260504171025 63 251 5.0 13.0 0.00 0.00 0.00 74 1014.8
20260504160111 70 266 1.0 2.0 0.00 0.00 0.00 56 1014.6
20260504151101 71 293 1.0 4.0 0.00 0.00 0.00 57 1014.8
20260504141048 73 296 1.0 4.0 0.00 0.00 0.00 54 1015.3
20260504110110 69 263 2.0 4.0 0.00 0.00 0.00 63 1016.2
20260504081036 60 300 1.0 4.0 0.00 0.00 0.00 72 1016.6
20260504060109 56 96 1.0 2.0 0.00 0.00 0.00 78 1015.4
20260504045056 53 0.0 2.0 0.00 0.00 0.00 80 1014.8
20260504044053 52 95 2.0 4.0 0.00 0.00 0.00 81 1014.7
20260504043112 53 109 2.0 4.0 0.00 0.00 0.00 81 1014.8
20260504042049 52 113 1.0 2.0 0.00 0.00 0.00 83 1014.8
20260504041047 51 0.0 0.0 0.00 0.00 0.00 83 1014.7
20260504040045 52 113 0.0 2.0 0.00 0.00 0.00 83 1014.8
20260504035043 52 113 1.0 2.0 0.00 0.00 0.00 80 1014.7
20260504034041 53 0.0 2.0 0.00 0.00 0.00 80 1014.7
20260504033039 54 113 0.0 2.0 0.00 0.00 0.00 79 1014.6
20260504032037 54 0.0 0.0 0.00 0.00 0.00 78 1014.8
20260504031055 55 113 0.0 2.0 0.00 0.00 0.00 76 1014.8
20260504030033 55 113 1.0 2.0 0.00 0.00 0.00 76 1014.9
20260504025031 55 135 0.0 2.0 0.00 0.00 0.00 76 1014.8
20260504024029 54 135 0.0 2.0 0.00 0.00 0.00 77 1014.7
20260504023027 55 135 0.0 2.0 0.00 0.00 0.00 77 1014.7
20260504022045 56 180 0.0 2.0 0.00 0.00 0.00 74 1014.7
20260504021043 56 180 0.0 2.0 0.00 0.00 0.00 73 1014.8
20260504020021 56 270 0.0 4.0 0.00 0.00 0.00 73 1014.7
20260504015019 56 0.0 2.0 0.00 0.00 0.00 73 1014.7
20260504014017 56 0.0 0.0 0.00 0.00 0.00 73 1014.6
20260504013015 57 0.0 0.0 0.00 0.00 0.00 72 1014.6
20260504012113 58 0.0 2.0 0.00 0.00 0.00 71 1014.6